Weather reports worldwide

Advertisment
Toledo, Spain (8272): temperature & dewpoint: 08.11.2018 13:00:00 - 14.11.2018 13:00:00 (CET)Toledo, Spain (8272): wind speed: 08.11.2018 13:00:00 - 14.11.2018 13:00:00 (CET)Toledo, Spain (8272): wind direction: 08.11.2018 13:00:00 - 14.11.2018 13:00:00 (CET)Toledo, Spain (8272): reduced air pressure: 08.11.2018 13:00:00 - 14.11.2018 13:00:00 (CET)Toledo, Spain (8272): visibility: 08.11.2018 13:00:00 - 14.11.2018 13:00:00 (CET)Toledo, Spain (8272): precipitation: 08.11.2018 13:00:00 - 14.11.2018 13:00:00 (CET)
Date & Time tt [°C] td [°C] ff [km/h] ff [kn] dd ppp [hPa] vv [km] rr [mm]
14.11.2018 13:00:00 18,2 12,0 21 11 ESE 1019,6 20 -
14.11.2018 12:00:00 15,4 11,4 15 8 E 1021,5 19 0,0
14.11.2018 11:00:00 14,5 10,7 22 12 E 1022,0 19 0,0
14.11.2018 10:00:00 11,9 9,6 16 9 E 1023,2 18 -
14.11.2018 09:00:00 11,3 9,4 11 6 ENE 1023,3 16 0,0
14.11.2018 08:00:00 11,6 9,3 8 4 E 1023,1 18 0,0
14.11.2018 07:00:00 11,7 9,4 9 5 E 1023,1 18 -
14.11.2018 06:00:00 12,1 9,7 13 7 E 1023,2 17 0,0
14.11.2018 05:00:00 11,8 9,7 11 6 ESE 1023,5 16 0,0
14.11.2018 04:00:00 10,9 9,2 11 6 E 1023,9 15 -
14.11.2018 03:00:00 11,2 9,3 11 6 E 1024,1 16 0,0
14.11.2018 02:00:00 11,8 9,5 13 7 ENE 1024,2 17 0,0
14.11.2018 01:00:00 11,6 9,5 9 5 ENE 1024,7 16 -
14.11.2018 00:00:00 12,6 10,0 11 6 E 1024,5 17 0,0
13.11.2018 23:00:00 13,0 10,2 15 8 E 1024,3 18 0,0
13.11.2018 22:00:00 13,4 10,4 11 6 E 1024,1 18 -
13.11.2018 21:00:00 14,0 10,4 15 8 ESE 1023,6 19 0,0
13.11.2018 20:00:00 14,7 10,7 15 8 ESE 1023,3 20 0,0
13.11.2018 19:00:00 15,0 11,4 11 6 ESE 1022,9 20 -
13.11.2018 18:00:00 16,6 11,1 4 2 NE 1021,9 20 0,0
13.11.2018 17:00:00 18,4 11,2 8 4 E 1021,4 20 0,0
13.11.2018 16:00:00 18,4 11,2 13 7 E 1021,2 20 -
13.11.2018 15:00:00 18,1 10,9 15 8 ESE 1021,4 20 0,0
13.11.2018 14:00:00 17,4 11,4 9 5 ESE 1021,8 20 0,0
13.11.2018 13:00:00 16,3 11,2 11 6 ESE 1022,7 20 -
13.11.2018 12:00:00 - - - - - - - -
13.11.2018 11:00:00 - - - - - - - -
13.11.2018 10:00:00 - - - - - - - -
13.11.2018 09:00:00 - - - - - - - -
13.11.2018 08:00:00 - - - - - - - -
13.11.2018 07:00:00 - - - - - - - -
13.11.2018 06:00:00 - - - - - - - -
13.11.2018 05:00:00 - - - - - - - -
13.11.2018 04:00:00 - - - - - - - -
13.11.2018 03:00:00 - - - - - - - -
13.11.2018 02:00:00 - - - - - - - -
13.11.2018 01:00:00 - - - - - - - -
13.11.2018 00:00:00 - - - - - - - -
12.11.2018 23:00:00 - - - - - - - -
12.11.2018 22:00:00 - - - - - - - -
12.11.2018 21:00:00 - - - - - - - -
12.11.2018 20:00:00 - - - - - - - -
12.11.2018 19:00:00 - - - - - - - -
12.11.2018 18:00:00 - - - - - - - -
12.11.2018 17:00:00 - - - - - - - -
12.11.2018 16:00:00 - - - - - - - -
12.11.2018 15:00:00 - - - - - - - -
12.11.2018 14:00:00 - - - - - - - -
12.11.2018 13:00:00 - - - - - - - -
12.11.2018 12:00:00 - - - - - - - -
12.11.2018 11:00:00 - - - - - - - -
12.11.2018 10:00:00 - - - - - - - -
12.11.2018 09:00:00 - - - - - - - -
12.11.2018 08:00:00 - - - - - - - -
12.11.2018 07:00:00 - - - - - - - -
12.11.2018 06:00:00 - - - - - - - -
12.11.2018 05:00:00 - - - - - - - -
12.11.2018 04:00:00 - - - - - - - -
12.11.2018 03:00:00 - - - - - - - -
12.11.2018 02:00:00 - - - - - - - -
12.11.2018 01:00:00 - - - - - - - -
12.11.2018 00:00:00 - - - - - - - -
11.11.2018 23:00:00 - - - - - - - -
11.11.2018 22:00:00 - - - - - - - -
11.11.2018 21:00:00 - - - - - - - -
11.11.2018 20:00:00 - - - - - - - -
11.11.2018 19:00:00 - - - - - - - -
11.11.2018 18:00:00 - - - - - - - -
11.11.2018 17:00:00 - - - - - - - -
11.11.2018 16:00:00 - - - - - - - -
11.11.2018 15:00:00 - - - - - - - -
11.11.2018 14:00:00 - - - - - - - -
11.11.2018 13:00:00 - - - - - - - -
11.11.2018 12:00:00 - - - - - - - -
11.11.2018 11:00:00 - - - - - - - -
11.11.2018 10:00:00 - - - - - - - -
11.11.2018 09:00:00 - - - - - - - -
11.11.2018 08:00:00 - - - - - - - -
11.11.2018 07:00:00 - - - - - - - -
11.11.2018 06:00:00 - - - - - - - -
11.11.2018 05:00:00 - - - - - - - -
11.11.2018 04:00:00 - - - - - - - -
11.11.2018 03:00:00 - - - - - - - -
11.11.2018 02:00:00 - - - - - - - -
11.11.2018 01:00:00 - - - - - - - -
11.11.2018 00:00:00 - - - - - - - -
10.11.2018 23:00:00 - - - - - - - -
10.11.2018 22:00:00 - - - - - - - -
10.11.2018 21:00:00 - - - - - - - -
10.11.2018 20:00:00 - - - - - - - -
10.11.2018 19:00:00 - - - - - - - -
10.11.2018 18:00:00 - - - - - - - -
10.11.2018 17:00:00 - - - - - - - -
10.11.2018 16:00:00 - - - - - - - -
10.11.2018 15:00:00 - - - - - - - -
10.11.2018 14:00:00 - - - - - - - -
10.11.2018 13:00:00 - - - - - - - -
10.11.2018 12:00:00 - - - - - - - -
10.11.2018 11:00:00 - - - - - - - -
10.11.2018 10:00:00 - - - - - - - -
10.11.2018 09:00:00 - - - - - - - -
10.11.2018 08:00:00 - - - - - - - -
10.11.2018 07:00:00 - - - - - - - -
10.11.2018 06:00:00 - - - - - - - -
10.11.2018 05:00:00 - - - - - - - -
10.11.2018 04:00:00 - - - - - - - -
10.11.2018 03:00:00 - - - - - - - -
10.11.2018 02:00:00 - - - - - - - -
10.11.2018 01:00:00 - - - - - - - -
10.11.2018 00:00:00 - - - - - - - -
09.11.2018 23:00:00 - - - - - - - -
09.11.2018 22:00:00 - - - - - - - -
09.11.2018 21:00:00 - - - - - - - -
09.11.2018 20:00:00 - - - - - - - -
09.11.2018 19:00:00 - - - - - - - -
09.11.2018 18:00:00 - - - - - - - -
09.11.2018 17:00:00 - - - - - - - -
09.11.2018 16:00:00 - - - - - - - -
09.11.2018 15:00:00 - - - - - - - -
09.11.2018 14:00:00 - - - - - - - -
09.11.2018 13:00:00 - - - - - - - -
09.11.2018 12:00:00 - - - - - - - -
09.11.2018 11:00:00 - - - - - - - -
09.11.2018 10:00:00 - - - - - - - -
09.11.2018 09:00:00 - - - - - - - -
09.11.2018 08:00:00 - - - - - - - -
09.11.2018 07:00:00 - - - - - - - -
09.11.2018 06:00:00 - - - - - - - -
09.11.2018 05:00:00 - - - - - - - -
09.11.2018 04:00:00 - - - - - - - -
09.11.2018 03:00:00 - - - - - - - -
09.11.2018 02:00:00 - - - - - - - -
09.11.2018 01:00:00 - - - - - - - -
09.11.2018 00:00:00 - - - - - - - -
08.11.2018 23:00:00 - - - - - - - -
08.11.2018 22:00:00 - - - - - - - -
08.11.2018 21:00:00 - - - - - - - -
08.11.2018 20:00:00 - - - - - - - -
08.11.2018 19:00:00 - - - - - - - -
08.11.2018 18:00:00 - - - - - - - -
08.11.2018 17:00:00 - - - - - - - -
08.11.2018 16:00:00 - - - - - - - -
08.11.2018 15:00:00 - - - - - - - -
08.11.2018 14:00:00 - - - - - - - -
08.11.2018 13:00:00 - - - - - - - -

tt = temperature
td = dewpoint
ff = wind speed
dd = wind direction
ppp = reduced air pressure
vv = visibility
rr = precipitation

Next stations